Year,Month,Day,Hour,Minute,Value (Times are PST for temperature in C)
2018,04,02,10,03,5.30
2018,04,02,10,04,5.40
2018,04,02,10,05,5.40
2018,04,02,10,06,5.50
2018,04,02,10,07,5.50
2018,04,02,10,08,5.60
2018,04,02,10,09,5.60
2018,04,02,10,10,5.70
2018,04,02,10,11,5.70
2018,04,02,10,12,5.70
2018,04,02,10,13,5.80
2018,04,02,10,14,5.80
2018,04,02,10,15,5.80
2018,04,02,10,16,5.80
2018,04,02,10,17,5.90
2018,04,02,10,18,5.90
2018,04,02,10,19,5.90
2018,04,02,10,20,5.90
2018,04,02,10,21,5.90
2018,04,02,10,22,5.90
2018,04,02,10,23,5.90
2018,04,02,10,24,5.90
2018,04,02,10,25,5.90
2018,04,02,10,26,5.90
2018,04,02,10,27,6.00
2018,04,02,10,28,6.00
2018,04,02,10,29,6.00
2018,04,02,10,30,6.10
2018,04,02,10,31,6.10
2018,04,02,10,32,6.10
2018,04,02,10,33,6.10
2018,04,02,10,34,6.20
2018,04,02,10,35,6.20
2018,04,02,10,36,6.20
2018,04,02,10,37,6.20
2018,04,02,10,38,6.20
2018,04,02,10,39,6.30
2018,04,02,10,40,6.30
2018,04,02,10,41,6.40
2018,04,02,10,42,6.40
2018,04,02,10,43,6.50
2018,04,02,10,44,6.50
2018,04,02,10,45,6.50
2018,04,02,10,46,6.50
2018,04,02,10,47,6.50
2018,04,02,10,48,6.50
2018,04,02,10,49,6.50
2018,04,02,10,50,6.50
2018,04,02,10,51,6.50
2018,04,02,10,52,6.60
2018,04,02,10,53,6.60
2018,04,02,10,54,6.60
2018,04,02,10,55,6.60
2018,04,02,10,56,6.70
2018,04,02,10,57,6.70
2018,04,02,10,58,6.70
2018,04,02,10,59,6.70
2018,04,02,11,00,6.70
2018,04,02,11,01,6.70
2018,04,02,11,02,6.70
2018,04,02,11,03,6.60
2018,04,02,11,04,6.60
2018,04,02,11,05,6.50
2018,04,02,11,06,6.50
2018,04,02,11,07,6.40
2018,04,02,11,08,6.40
2018,04,02,11,09,6.40
2018,04,02,11,10,6.40
2018,04,02,11,11,6.40
2018,04,02,11,12,6.40
2018,04,02,11,13,6.40
2018,04,02,11,14,6.40
2018,04,02,11,15,6.40
2018,04,02,11,16,6.40
2018,04,02,11,17,6.40
2018,04,02,11,18,6.40
2018,04,02,11,19,6.50
2018,04,02,11,20,6.50
2018,04,02,11,21,6.60
2018,04,02,11,22,6.70
2018,04,02,11,23,6.70
2018,04,02,11,24,6.70
2018,04,02,11,25,6.70
2018,04,02,11,26,6.70
2018,04,02,11,27,6.80
2018,04,02,11,28,6.90
2018,04,02,11,29,6.90
2018,04,02,11,30,6.90
2018,04,02,11,31,7.00
2018,04,02,11,32,7.00
2018,04,02,11,33,7.10
2018,04,02,11,34,7.10
2018,04,02,11,35,7.10
2018,04,02,11,36,7.10
2018,04,02,11,37,7.10
2018,04,02,11,38,7.10
2018,04,02,11,39,7.00
2018,04,02,11,40,7.00
2018,04,02,11,41,7.00
2018,04,02,11,42,7.00
2018,04,02,11,43,7.00
2018,04,02,11,44,7.00
2018,04,02,11,45,7.10
2018,04,02,11,46,7.10
2018,04,02,11,47,7.10
2018,04,02,11,48,7.10
2018,04,02,11,49,7.10
2018,04,02,11,50,7.10
2018,04,02,11,51,7.10
2018,04,02,11,52,7.10
2018,04,02,11,53,7.10
2018,04,02,11,54,7.10
2018,04,02,11,55,7.10
2018,04,02,11,56,7.10
2018,04,02,11,57,7.10
2018,04,02,11,58,7.10
2018,04,02,11,59,7.00
2018,04,02,12,00,7.00
2018,04,02,12,01,6.90
2018,04,02,12,02,6.90
2018,04,02,12,03,6.90
2018,04,02,12,04,6.90
2018,04,02,12,05,7.00
2018,04,02,12,06,7.10
2018,04,02,12,07,7.10
2018,04,02,12,08,7.10
2018,04,02,12,09,7.10
2018,04,02,12,10,7.10
2018,04,02,12,11,7.10
2018,04,02,12,12,7.10
2018,04,02,12,13,7.20
2018,04,02,12,14,7.20
2018,04,02,12,15,7.30
2018,04,02,12,16,7.30
2018,04,02,12,17,7.40
2018,04,02,12,18,7.30
2018,04,02,12,19,7.30
2018,04,02,12,20,7.40
2018,04,02,12,21,7.40
2018,04,02,12,22,7.40
2018,04,02,12,23,7.40
2018,04,02,12,24,7.40
2018,04,02,12,25,7.40
2018,04,02,12,26,7.40
2018,04,02,12,27,7.40
2018,04,02,12,28,7.40
2018,04,02,12,29,7.50
2018,04,02,12,30,7.50
2018,04,02,12,31,7.60
2018,04,02,12,32,7.60
2018,04,02,12,33,7.60
2018,04,02,12,34,7.70
2018,04,02,12,35,7.70
2018,04,02,12,36,7.70
2018,04,02,12,37,7.70
2018,04,02,12,38,7.70
2018,04,02,12,39,7.60
2018,04,02,12,40,7.50
2018,04,02,12,41,7.40
2018,04,02,12,42,7.40
2018,04,02,12,43,7.40
2018,04,02,12,44,7.40
2018,04,02,12,45,7.40
2018,04,02,12,46,7.40
2018,04,02,12,47,7.40
2018,04,02,12,48,7.40
2018,04,02,12,49,7.40
2018,04,02,12,50,7.50
2018,04,02,12,51,7.50
2018,04,02,12,52,7.50
2018,04,02,12,53,7.50
2018,04,02,12,54,7.60
2018,04,02,12,55,7.60
2018,04,02,12,56,7.60
2018,04,02,12,57,7.70
2018,04,02,12,58,7.70
2018,04,02,12,59,7.70
2018,04,02,13,00,7.80
2018,04,02,13,01,7.80
2018,04,02,13,02,7.90
2018,04,02,13,03,7.90
2018,04,02,13,04,7.80
2018,04,02,13,05,7.80
2018,04,02,13,06,7.80
2018,04,02,13,07,7.80
2018,04,02,13,08,7.80
2018,04,02,13,09,7.80
2018,04,02,13,10,7.80
2018,04,02,13,11,7.80
2018,04,02,13,12,7.80
2018,04,02,13,13,7.80
2018,04,02,13,14,7.80
2018,04,02,13,15,7.80
2018,04,02,13,16,7.80
2018,04,02,13,17,7.80
2018,04,02,13,18,7.80
2018,04,02,13,19,7.70
2018,04,02,13,20,7.70
2018,04,02,13,21,7.70
2018,04,02,13,22,7.70
2018,04,02,13,23,7.70
2018,04,02,13,24,7.70
2018,04,02,13,25,7.70
2018,04,02,13,26,7.80
2018,04,02,13,27,7.80
2018,04,02,13,28,7.90
2018,04,02,13,29,7.90
2018,04,02,13,30,8.00
2018,04,02,13,31,8.00
2018,04,02,13,32,8.10
2018,04,02,13,33,8.10
2018,04,02,13,34,8.10
2018,04,02,13,35,8.10
2018,04,02,13,36,8.10
2018,04,02,13,37,8.10
2018,04,02,13,38,8.10
2018,04,02,13,39,8.10
2018,04,02,13,40,8.20
2018,04,02,13,41,8.20
2018,04,02,13,42,8.30
2018,04,02,13,43,8.30
2018,04,02,13,44,8.30
2018,04,02,13,45,8.40
2018,04,02,13,46,8.40
2018,04,02,13,47,8.30
2018,04,02,13,48,8.20
2018,04,02,13,49,8.20
2018,04,02,13,50,8.20
2018,04,02,13,51,8.30
2018,04,02,13,52,8.30
2018,04,02,13,53,8.30
2018,04,02,13,54,8.30
2018,04,02,13,55,8.30
2018,04,02,13,56,8.30
2018,04,02,13,57,8.30
2018,04,02,13,58,8.30
2018,04,02,13,59,8.20
2018,04,02,14,00,8.20
2018,04,02,14,01,8.20
2018,04,02,14,02,8.20
2018,04,02,14,03,8.20
2018,04,02,14,04,8.20
2018,04,02,14,05,8.30
2018,04,02,14,06,8.20
2018,04,02,14,07,8.20
2018,04,02,14,08,8.20
2018,04,02,14,09,8.20
2018,04,02,14,10,8.20
2018,04,02,14,11,8.30
2018,04,02,14,12,8.30
2018,04,02,14,13,8.30
2018,04,02,14,14,8.30
2018,04,02,14,15,8.30
2018,04,02,14,16,8.30
2018,04,02,14,17,8.30
2018,04,02,14,18,8.30
2018,04,02,14,19,8.30
2018,04,02,14,20,8.30
2018,04,02,14,21,8.30
2018,04,02,14,22,8.30
2018,04,02,14,23,8.40
2018,04,02,14,24,8.40
2018,04,02,14,25,8.40
2018,04,02,14,26,8.40
2018,04,02,14,27,8.40
2018,04,02,14,28,8.40
2018,04,02,14,29,8.40
2018,04,02,14,30,8.40
2018,04,02,14,31,8.30
2018,04,02,14,32,8.30
2018,04,02,14,33,8.30
2018,04,02,14,34,8.40
2018,04,02,14,35,8.50
2018,04,02,14,36,8.50
2018,04,02,14,37,8.60
2018,04,02,14,38,8.70
2018,04,02,14,39,8.70
2018,04,02,14,40,8.80
2018,04,02,14,41,8.80
2018,04,02,14,42,8.70
2018,04,02,14,43,8.60
2018,04,02,14,44,8.60
2018,04,02,14,45,8.60
2018,04,02,14,46,8.60
2018,04,02,14,47,8.60
2018,04,02,14,48,8.60
2018,04,02,14,49,8.60
2018,04,02,14,50,8.60
2018,04,02,14,51,8.60
2018,04,02,14,52,8.50
2018,04,02,14,53,8.50
2018,04,02,14,54,8.50
2018,04,02,14,55,8.50
2018,04,02,14,56,8.40
2018,04,02,14,57,8.40
2018,04,02,14,58,8.40
2018,04,02,14,59,8.40
2018,04,02,15,00,8.30
2018,04,02,15,01,8.30
2018,04,02,15,02,8.30
2018,04,02,15,03,8.30
2018,04,02,15,04,8.30
2018,04,02,15,05,8.40
2018,04,02,15,06,8.40
2018,04,02,15,07,8.40
2018,04,02,15,08,8.50
2018,04,02,15,09,8.60
2018,04,02,15,10,8.60
2018,04,02,15,11,8.60
2018,04,02,15,12,8.60
2018,04,02,15,13,8.60
2018,04,02,15,14,8.50
2018,04,02,15,15,8.50
2018,04,02,15,16,8.60
2018,04,02,15,17,8.60
2018,04,02,15,18,8.60
2018,04,02,15,19,8.60
2018,04,02,15,20,8.60
2018,04,02,15,21,8.60
2018,04,02,15,22,8.60
2018,04,02,15,23,8.60
2018,04,02,15,24,8.60
2018,04,02,15,25,8.50
2018,04,02,15,26,8.40
2018,04,02,15,27,8.40
2018,04,02,15,28,8.40
2018,04,02,15,29,8.50
2018,04,02,15,30,8.50
2018,04,02,15,31,8.50
2018,04,02,15,32,8.60
2018,04,02,15,33,8.60
2018,04,02,15,34,8.60
2018,04,02,15,35,8.60
2018,04,02,15,36,8.60
2018,04,02,15,37,8.60
2018,04,02,15,38,8.60
2018,04,02,15,39,8.60
2018,04,02,15,40,8.60
2018,04,02,15,41,8.60
2018,04,02,15,42,8.50
2018,04,02,15,43,8.50
2018,04,02,15,44,8.60
2018,04,02,15,45,8.60
2018,04,02,15,46,8.60
2018,04,02,15,47,8.70
2018,04,02,15,48,8.70
2018,04,02,15,49,8.70
2018,04,02,15,50,8.70
2018,04,02,15,51,8.70
2018,04,02,15,52,8.80
2018,04,02,15,53,8.70
2018,04,02,15,54,8.70
2018,04,02,15,55,8.70
2018,04,02,15,56,8.70
2018,04,02,15,57,8.70
2018,04,02,15,58,8.60
2018,04,02,15,59,8.40
2018,04,02,16,00,8.30
2018,04,02,16,01,8.30
2018,04,02,16,02,8.30
2018,04,02,16,03,8.40
2018,04,02,16,04,8.40
2018,04,02,16,05,8.40
2018,04,02,16,06,8.40
2018,04,02,16,07,8.50
2018,04,02,16,08,8.60
2018,04,02,16,09,8.60
2018,04,02,16,10,8.50
2018,04,02,16,11,8.50
2018,04,02,16,12,8.40
2018,04,02,16,13,8.40
2018,04,02,16,14,8.40
2018,04,02,16,15,8.40
2018,04,02,16,16,8.40
2018,04,02,16,17,8.30
2018,04,02,16,18,8.30
2018,04,02,16,19,8.20
2018,04,02,16,20,8.20
2018,04,02,16,21,8.20
2018,04,02,16,22,8.20
2018,04,02,16,23,8.10
2018,04,02,16,24,8.20
2018,04,02,16,25,8.20
2018,04,02,16,26,8.20
2018,04,02,16,27,8.20
2018,04,02,16,28,8.20
2018,04,02,16,29,8.20
2018,04,02,16,30,8.20
2018,04,02,16,31,8.20
2018,04,02,16,32,8.20
2018,04,02,16,33,8.20
2018,04,02,16,34,8.20
2018,04,02,16,35,8.20
2018,04,02,16,36,8.30
2018,04,02,16,37,8.20
2018,04,02,16,38,8.20
2018,04,02,16,39,8.20
2018,04,02,16,40,8.20
2018,04,02,16,41,8.20
2018,04,02,16,42,8.20
2018,04,02,16,43,8.20
2018,04,02,16,44,8.20
2018,04,02,16,45,8.20
2018,04,02,16,46,8.20
2018,04,02,16,47,8.10
2018,04,02,16,48,8.10
2018,04,02,16,49,8.10
2018,04,02,16,50,8.10
2018,04,02,16,51,8.10
2018,04,02,16,52,8.10
2018,04,02,16,53,8.10
2018,04,02,16,54,8.10
2018,04,02,16,55,8.10
2018,04,02,16,56,8.10
2018,04,02,16,57,8.10
2018,04,02,16,58,8.10
2018,04,02,16,59,8.10
2018,04,02,17,00,8.10
2018,04,02,17,01,8.10
2018,04,02,17,02,8.10
2018,04,02,17,03,8.10
2018,04,02,17,04,8.10
2018,04,02,17,05,8.00
2018,04,02,17,06,8.00
2018,04,02,17,07,8.00
2018,04,02,17,08,8.00
2018,04,02,17,09,7.90
2018,04,02,17,10,7.90
2018,04,02,17,11,7.80
2018,04,02,17,12,7.80
2018,04,02,17,13,7.80
2018,04,02,17,14,7.80
2018,04,02,17,15,7.70
2018,04,02,17,16,7.70
2018,04,02,17,17,7.70
2018,04,02,17,18,7.70
2018,04,02,17,19,7.70
2018,04,02,17,20,7.70
2018,04,02,17,21,7.70
2018,04,02,17,22,7.70
2018,04,02,17,23,7.70
2018,04,02,17,24,7.60
2018,04,02,17,25,7.60
2018,04,02,17,26,7.60
2018,04,02,17,27,7.60
2018,04,02,17,28,7.60
2018,04,02,17,29,7.60
2018,04,02,17,30,7.60
2018,04,02,17,31,7.60
2018,04,02,17,32,7.60
2018,04,02,17,33,7.60
2018,04,02,17,34,7.60
2018,04,02,17,35,7.60
2018,04,02,17,36,7.60
2018,04,02,17,37,7.60
2018,04,02,17,38,7.50
2018,04,02,17,39,7.50
2018,04,02,17,40,7.50
2018,04,02,17,41,7.50
2018,04,02,17,42,7.50
2018,04,02,17,43,7.50
2018,04,02,17,44,7.50
2018,04,02,17,45,7.50
2018,04,02,17,46,7.50
2018,04,02,17,47,7.50
2018,04,02,17,48,7.50
2018,04,02,17,49,7.50
2018,04,02,17,50,7.50
2018,04,02,17,51,7.50
2018,04,02,17,52,7.50
2018,04,02,17,53,7.50
2018,04,02,17,54,7.40
2018,04,02,17,55,7.40
2018,04,02,17,56,7.40
2018,04,02,17,57,7.40
2018,04,02,17,58,7.40
2018,04,02,17,59,7.40
2018,04,02,18,00,7.40
2018,04,02,18,01,7.40
2018,04,02,18,02,7.40
2018,04,02,18,03,7.40
2018,04,02,18,04,7.40
2018,04,02,18,05,7.40
2018,04,02,18,06,7.40
2018,04,02,18,07,7.40
2018,04,02,18,08,7.40
2018,04,02,18,09,7.40
2018,04,02,18,10,7.40
2018,04,02,18,11,7.40
2018,04,02,18,12,7.40
2018,04,02,18,13,7.40
2018,04,02,18,14,7.40
2018,04,02,18,15,7.40
2018,04,02,18,16,7.40
2018,04,02,18,17,7.40
2018,04,02,18,18,7.40
2018,04,02,18,19,7.40
